sat.trackr.live / text

‹ back to catalog

ONEWEB-0663

NORAD 55823 · 2023-029AD

PAYLOAD ACTIVE UNKNOWN

§ Identity

Operator
Country
UK
Launch date
2023-03-09
Launch site
AFETR
Launch vehicle
Mass (kg)
RCS (m²)

Purposes: comms

External: N2YO · Heavens-Above · Gunter

§ Orbital elements

Epoch: 2026-09-19T05:52:58.069920Z

Period
109.02 min
Inclination
87.9146°
Eccentricity
0.0002066
Mean motion
13.20874710 rev/d
Perigee alt
1,179.8 km
Apogee alt
1,182.9 km
Semi-major
7,559.5 km
B*
1.3420e-4
RAAN
255.7365°
Arg perigee
75.2004°
Mean anomaly
284.9358°
Rev number
17,356

§ Raw data

ONEWEB-06631 55823U 23029AD  26262.24511655  .00000068  00000+0  13420-3 0  99922 55823  87.9146 255.7365 0002066  75.2004 284.9358 13.20874710173569

JSON: /api/v1/satellites/55823 · /tle

For live sub-satellite position, see the globe view (requires WebGL).

§ Visibility from observer

Set your observer location to see the next 7 days of passes ≥ 10°. The values pass through the URL so the page stays shareable.

No JS? Fill the form by hand. The geolocation button needs JavaScript.